Location: Bogis-Bossey
(46.3500°N, 6.1667°E)
Time: 19:12:34
(UTC+00:00)

Cosmos 2056 Rocket - Pass Details

Date: 17 August 2022
Orbit: 742 x 799 km, 74.0° (Epoch: 01 October)

Event Time Altitude Azimuth Distance (km) Brightness Sun altitude
Rises 21:20:03 0° 337° (NNW) 3,218 8.1 -22.7°
Reaches altitude 10° 21:22:26 10° 336° (NNW) 2,282 7.0 -23.0°
Maximum altitude 21:27:36 81° 250° (WSW) 761 3.4 -23.5°
Enters shadow 21:28:27 62° 179° (S) 839 3.4 -23.6°
